Tracking 35051 objects as of 17-Aug-2026
HD Live streaming from Space Station
objects crossing your sky now

STARLINK-37589

Track STARLINK-37589 now!
10-day predictions
STARLINK-37589 is classified as:


NORAD ID: 69839
Int'l Code: 2026-154W
Launch date: July 5, 2026
Source: United States (US)
Launch site: AIR FORCE EASTERN TEST RANGE (AFETR)
Your satellite tracking list
Your tracking list is empty




NASA's NSSDC Master Catalog

Two Line Element Set (TLE):
1 69839U 26154W   26229.58335648  .00063304  00000-0  18126-2 0  9992
2 69839  53.1588 130.0106 0001077 106.5824 292.1929 15.35362682  6022
Source of the keplerian elements: AFSPC